Weather History for Clinton, OK

Change the Weather History Date:

Sunday, March 3, 2013

  Actual Average (KCSM) Record (KCSM)
Temperature  
Mean Temperature 52 °F -  
Max Temperature 71 °F 54 °F 71 °F (1997)
Min Temperature 32 °F 30 °F 3 °F (2014)
Degree Days  
Heating Degree Days 14    
Growing Degree Days 2 (Base 50)    
Moisture  
Dew Point 31 °F    
Average Humidity 55    
Maximum Humidity 93    
Minimum Humidity 20    
Precipitation  
Precipitation 0.00 in - - ()
Sea Level Pressure  
Sea Level Pressure 29.85 in    
Wind  
Wind Speed 9 mph (SSE)    
Max Wind Speed 24 mph    
Max Gust Speed 31 mph    
Visibility 10 miles    
Events      
Averages and records for this station are not official NWS values.
T = Trace of Precipitation, MM = Missing Value Source: NWS Daily Summary

Daily Weather History Graph

Daily Weather History Graph

Search for Another Location

Airport:

Trip Planner

Search our weather history database for the weather conditions in past years. The results will help you decide how hot, cold, wet, or windy it might be!

Date:

Astronomy

Mar. 03, 2013 Rise Set
Actual Time 7:02 AM CST 6:33 PM CST
Civil Twilight 6:37 AM CST 6:58 PM CST
Nautical Twilight 6:07 AM CST 7:28 PM CST
Astronomical Twilight 5:38 AM CST 7:57 PM CST
Moon 12:00 AM CST (3/3) 10:32 AM CST (3/3)
Length of Visible Light 12h 21m
Length of Day
11h 30m
Waning Gibbous, 63% of the Moon is Illuminated
Mar 3
Waning Gibbous
Mar 4
Last Quarter
Mar 11
New
Mar 19
First Quarter
Mar 27
Full

Hourly Weather History & Observations

Time (CST) Temp. Windchill Dew Point Humidity Pressure Visibility Wind Dir Wind Speed Gust Speed Precip Events Conditions
12:15 AM 37.4 °F 31.4 °F 32.0 °F 81% 30.14 in 10.0 mi SSE 8.1 mph - N/A   Clear
12:35 AM 35.6 °F 30.7 °F 32.0 °F 87% 30.14 in 10.0 mi South 5.8 mph - N/A   Clear
12:55 AM 35.6 °F 30.7 °F 32.0 °F 87% 30.14 in 10.0 mi South 5.8 mph - N/A   Clear
1:15 AM 33.8 °F 28.6 °F 32.0 °F 93% 30.12 in 10.0 mi South 5.8 mph - N/A   Clear
1:35 AM 33.8 °F 29.6 °F 32.0 °F 93% 30.12 in 10.0 mi South 4.6 mph - N/A   Clear
1:55 AM 33.8 °F 28.6 °F 30.2 °F 87% 30.12 in 10.0 mi South 5.8 mph - N/A   Clear
2:15 AM 33.8 °F 30.8 °F 32.0 °F 93% 30.12 in 10.0 mi SSE 3.5 mph - N/A   Clear
2:35 AM 33.8 °F 30.8 °F 30.2 °F 87% 30.11 in 10.0 mi SSE 3.5 mph - N/A   Clear
2:55 AM 33.8 °F 29.6 °F 32.0 °F 93% 30.10 in 10.0 mi South 4.6 mph - N/A   Clear
3:15 AM 33.8 °F 30.8 °F 32.0 °F 93% 30.09 in 10.0 mi South 3.5 mph - N/A   Clear
3:35 AM 33.8 °F 30.8 °F 30.2 °F 87% 30.08 in 10.0 mi SSE 3.5 mph - N/A   Clear
4:15 AM 35.6 °F 32.8 °F 32.0 °F 87% 30.06 in 10.0 mi South 3.5 mph - N/A   Clear
4:35 AM 33.8 °F 29.6 °F 30.2 °F 87% 30.05 in 10.0 mi SSE 4.6 mph - N/A   Clear
5:15 AM 32.0 °F 26.4 °F 28.4 °F 87% 30.04 in 10.0 mi South 5.8 mph - N/A   Clear
5:35 AM 32.0 °F 28.7 °F 30.2 °F 93% 30.04 in 10.0 mi South 3.5 mph - N/A   Clear
6:15 AM 32.0 °F 27.5 °F 28.4 °F 87% 30.02 in 10.0 mi South 4.6 mph - N/A   Clear
6:35 AM 32.0 °F 28.7 °F 28.4 °F 87% 30.02 in 10.0 mi SSW 3.5 mph - N/A   Clear
6:55 AM 32.0 °F 27.5 °F 28.4 °F 87% 30.01 in 10.0 mi South 4.6 mph - N/A   Clear
7:15 AM 32.0 °F 26.4 °F 28.4 °F 87% 30.01 in 10.0 mi SSE 5.8 mph - N/A   Clear
7:35 AM 32.0 °F 25.6 °F 28.4 °F 87% 30.01 in 10.0 mi South 6.9 mph - N/A   Clear
7:55 AM 32.0 °F 28.7 °F 30.2 °F 93% 30.01 in 10.0 mi South 3.5 mph - N/A   Clear
8:15 AM 33.8 °F 28.6 °F 30.2 °F 87% 30.01 in 10.0 mi SSE 5.8 mph - N/A   Clear
8:35 AM 35.6 °F 29.9 °F 30.2 °F 81% 30.00 in 10.0 mi SSE 6.9 mph - N/A   Clear
8:55 AM 37.4 °F 29.8 °F 32.0 °F 81% 29.99 in 10.0 mi South 11.5 mph - N/A   Clear
9:15 AM 37.4 °F 31.4 °F 32.0 °F 81% 29.98 in 10.0 mi South 8.1 mph - N/A   Clear
9:35 AM 41.0 °F 35.8 °F 32.0 °F 70% 29.97 in 10.0 mi SSE 8.1 mph - N/A   Clear
9:55 AM 42.8 °F 37.0 °F 32.0 °F 66% 29.96 in 10.0 mi South 10.4 mph - N/A   Clear
10:15 AM 44.6 °F 39.7 °F 33.8 °F 66% 29.95 in 10.0 mi South 9.2 mph - N/A   Clear
10:35 AM 46.4 °F 41.9 °F 33.8 °F 62% 29.95 in 10.0 mi South 9.2 mph - N/A   Clear
10:55 AM 50.0 °F - 35.6 °F 58% 29.94 in 10.0 mi South 10.4 mph - N/A   Clear
11:15 AM 51.8 °F - 33.8 °F 50% 29.92 in 10.0 mi SSE 11.5 mph - N/A   Clear
11:35 AM 55.4 °F - 33.8 °F 44% 29.91 in 10.0 mi South 10.4 mph - N/A   Clear
11:55 AM 57.2 °F - 33.8 °F 41% 29.89 in 10.0 mi South 12.7 mph - N/A   Clear
12:15 PM 59.0 °F - 32.0 °F 36% 29.87 in 10.0 mi South 11.5 mph - N/A   Clear
12:35 PM 62.6 °F - 32.0 °F 32% 29.85 in 10.0 mi SSW 17.3 mph 26.5 mph N/A   Clear
1:15 PM 64.4 °F - 30.2 °F 28% 29.81 in 10.0 mi South 21.9 mph 27.6 mph N/A   Clear
1:35 PM 64.4 °F - 32.0 °F 30% 29.80 in 10.0 mi South 20.7 mph 27.6 mph N/A   Clear
1:55 PM 66.2 °F - 32.0 °F 28% 29.77 in 10.0 mi South 24.2 mph 29.9 mph N/A   Clear
2:15 PM 68.0 °F - 32.0 °F 26% 29.76 in 10.0 mi South 21.9 mph 27.6 mph N/A   Clear
2:35 PM 68.0 °F - 28.4 °F 23% 29.74 in 10.0 mi South 21.9 mph 31.1 mph N/A   Clear
2:55 PM 68.0 °F - 30.2 °F 24% 29.73 in 10.0 mi South 23.0 mph 29.9 mph N/A   Clear
3:15 PM 68.0 °F - 28.4 °F 23% 29.73 in 10.0 mi South 24.2 mph 28.8 mph N/A   Clear
3:35 PM 68.0 °F - 30.2 °F 24% 29.72 in 10.0 mi South 19.6 mph 26.5 mph N/A   Clear
3:55 PM 68.0 °F - 30.2 °F 24% 29.71 in 10.0 mi South 16.1 mph 25.3 mph N/A   Clear
4:15 PM 69.8 °F - 28.4 °F 21% 29.69 in 10.0 mi South 19.6 mph 26.5 mph N/A   Clear
4:35 PM 69.8 °F - 28.4 °F 21% 29.68 in 10.0 mi South 19.6 mph 27.6 mph N/A   Clear
4:55 PM 71.6 °F - 28.4 °F 20% 29.67 in 10.0 mi South 15.0 mph - N/A   Clear
5:15 PM 69.8 °F - 30.2 °F 23% 29.66 in 10.0 mi South 13.8 mph - N/A   Clear
5:35 PM 69.8 °F - 30.2 °F 23% 29.64 in 10.0 mi SSE 13.8 mph - N/A   Clear
5:55 PM 68.0 °F - 30.2 °F 24% 29.64 in 10.0 mi SSE 10.4 mph - N/A   Clear
6:15 PM 66.2 °F - 30.2 °F 26% 29.63 in 10.0 mi SE 9.2 mph - N/A   Clear
6:35 PM 64.4 °F - 32.0 °F 30% 29.63 in 10.0 mi SSE 10.4 mph - N/A   Clear
7:15 PM 60.8 °F - 32.0 °F 34% 29.63 in 10.0 mi SE 11.5 mph - N/A   Clear
7:35 PM 60.8 °F - 32.0 °F 34% 29.62 in 10.0 mi SSE 11.5 mph - N/A   Clear
7:55 PM 60.8 °F - 32.0 °F 34% 29.61 in 10.0 mi SSE 12.7 mph - N/A   Clear
8:15 PM 59.0 °F - 32.0 °F 36% 29.61 in 10.0 mi SSE 11.5 mph - N/A   Clear
8:35 PM 57.2 °F - 32.0 °F 38% 29.61 in 10.0 mi SSE 11.5 mph - N/A   Clear
8:55 PM 55.4 °F - 32.0 °F 41% 29.60 in 10.0 mi SSE 11.5 mph - N/A   Clear
9:15 PM 57.2 °F - 32.0 °F 38% 29.60 in 10.0 mi SE 12.7 mph - N/A   Clear
9:35 PM 59.0 °F - 32.0 °F 36% 29.59 in 10.0 mi SSE 13.8 mph - N/A   Clear
9:55 PM 59.0 °F - 30.2 °F 34% 29.58 in 10.0 mi SE 12.7 mph - N/A   Clear
10:15 PM 57.2 °F - 30.2 °F 36% 29.58 in 10.0 mi SSE 13.8 mph - N/A   Clear
10:35 PM 55.4 °F - 30.2 °F 38% 29.57 in 10.0 mi SSE 15.0 mph - N/A   Clear
11:15 PM 55.4 °F - 28.4 °F 36% 29.55 in 10.0 mi SSE 15.0 mph - N/A   Clear
11:35 PM 55.4 °F - 28.4 °F 36% 29.54 in 10.0 mi SSE 15.0 mph - N/A   Clear